,,Stat6,,Stat2,,Stat8,,Stat9,,Stat10,,Wind1,,Wind1,
time,status,PA1M_AVG,status,PR1M_SUM,status,RH1M_AVG,status,SR1M_AVG,status,TA1M_AVG,status,W1dAve1m,status,W1sAve1m,
2007-06-20, 00:00:00,VALID,913.672,VALID,0,VALID,97.5931,VALID,-0.0169808,VALID,18.3142,VALID,91,VALID,0.813519,
2007-06-20, 00:01:00,VALID,913.649,VALID,0,VALID,97.7622,VALID,0,VALID,18.2887,VALID,91,VALID,0.860176,
2007-06-20, 00:02:00,VALID,913.634,VALID,0,VALID,97.8868,VALID,0,VALID,18.2725,VALID,91,VALID,0.648628,
2007-06-20, 00:03:00,VALID,913.629,VALID,0,VALID,97.9873,VALID,0,VALID,18.256,VALID,91,VALID,0.483259,
2007-06-20, 00:04:00,VALID,913.635,VALID,0,VALID,98.0928,VALID,-0.0169808,VALID,18.2493,VALID,91,VALID,0.0728561,
2007-06-20, 00:05:00,VALID,913.621,VALID,0,VALID,98.0674,VALID,0,VALID,18.2266,VALID,91,VALID,0.350204,
2007-06-20, 00:06:00,VALID,913.626,VALID,0,VALID,98.014,VALID,0,VALID,18.1812,VALID,91,VALID,0.696733,
2007-06-20, 00:07:00,VALID,913.625,VALID,0,VALID,98.1412,VALID,-0.0169808,VALID,18.1358,VALID,90,VALID,0.391387,
2007-06-20, 00:08:00,VALID,913.639,VALID,0,VALID,98.3764,VALID,-0.0169808,VALID,18.0839,VALID,90,VALID,0.0300781,
2007-06-20, 00:09:00,VALID,913.657,VALID,0,VALID,98.6587,VALID,0,VALID,18.0644,VALID,90,VALID,0,
2007-06-20, 00:10:00,VALID,913.659,VALID,0,VALID,98.8316,VALID,0,VALID,18.0647,VALID,90,VALID,0.188988,
2007-06-20, 00:11:00,VALID,913.639,VALID,0,VALID,98.9359,VALID,0,VALID,18.045,VALID,90,VALID,0.212798,
2007-06-20, 00:12:00,VALID,913.661,VALID,0,VALID,99.0224,VALID,-0.0169808,VALID,18.0387,VALID,90,VALID,0.0825639,
2007-06-20, 00:13:00,VALID,913.672,VALID,0,VALID,99.0911,VALID,0,VALID,18.0255,VALID,90,VALID,0,
2007-06-20, 00:14:00,VALID,913.68,VALID,0,VALID,99.1508,VALID,0,VALID,18.029,VALID,90,VALID,0.000545058,
2007-06-20, 00:15:00,VALID,913.657,VALID,0,VALID,99.1178,VALID,0,VALID,18.045,VALID,90,VALID,0.427144,
2007-06-20, 00:16:00,VALID,913.688,VALID,0,VALID,99.002,VALID,0.0169808,VALID,18.0387,VALID,77,VALID,0.261111,
2007-06-20, 00:17:00,VALID,913.736,VALID,0,VALID,98.8965,VALID,-0.0169808,VALID,18.019,VALID,322,VALID,0.97603,
2007-06-20, 00:18:00,VALID,913.698,VALID,0,VALID,98.9525,VALID,-0.0169808,VALID,18.0454,VALID,354,VALID,0.523082,
2007-06-20, 00:19:00,VALID,913.655,VALID,0,VALID,98.7363,VALID,0.0169808,VALID,18.1261,VALID,57,VALID,1.29812,
2007-06-20, 00:20:00,VALID,913.639,VALID,0,VALID,98.2302,VALID,0,VALID,18.1131,VALID,58,VALID,1.5651,
2007-06-20, 00:21:00,VALID,913.667,VALID,0,VALID,98.2098,VALID,0,VALID,18.0582,VALID,352,VALID,0.693314,
2007-06-20, 00:22:00,VALID,913.684,VALID,0,VALID,98.529,VALID,0,VALID,18.019,VALID,290,VALID,0.222124,
2007-06-20, 00:23:00,VALID,913.681,VALID,0,VALID,98.8889,VALID,0,VALID,18.0253,VALID,296,VALID,0.516352,
2007-06-20, 00:24:00,VALID,913.671,VALID,0,VALID,98.9792,VALID,0.0169808,VALID,18.0774,VALID,299,VALID,0.232887,
2007-06-20, 00:25:00,VALID,913.638,VALID,0,VALID,99.0135,VALID,-0.0169808,VALID,18.0969,VALID,316,VALID,0.528706,
2007-06-20, 00:26:00,VALID,913.623,VALID,0,VALID,98.941,VALID,0,VALID,18.1034,VALID,40,VALID,0.244141,
2007-06-20, 00:27:00,VALID,913.612,VALID,0,VALID,98.9283,VALID,0,VALID,18.0839,VALID,40,VALID,0,
2007-06-20, 00:28:00,VALID,913.619,VALID,0,VALID,99.0453,VALID,-0.0169808,VALID,18.0679,VALID,40,VALID,0.180618,
2007-06-20, 00:29:00,VALID,913.607,VALID,0,VALID,99.1712,VALID,0,VALID,18.0614,VALID,37,VALID,0.331473,
2007-06-20, 00:30:00,VALID,913.588,VALID,0,VALID,99.0847,VALID,-0.0169808,VALID,18.0614,VALID,34,VALID,0.189499,
2007-06-20, 00:31:00,VALID,913.533,VALID,0,VALID,98.969,VALID,0,VALID,18.0385,VALID,57,VALID,0.866815,
2007-06-20, 00:32:00,VALID,913.503,VALID,0,VALID,99.1279,VALID,-0.0169808,VALID,18.0028,VALID,72,VALID,0.802734,
2007-06-20, 00:33:00,VALID,913.51,VALID,0,VALID,99.47,VALID,0.0169808,VALID,18.0482,VALID,78,VALID,0.778088,
2007-06-20, 00:34:00,VALID,913.523,VALID,0,VALID,99.3581,VALID,0.0169808,VALID,18.0839,VALID,86,VALID,0.23952,
2007-06-20, 00:35:00,VALID,913.534,VALID,0,VALID,99.0605,VALID,0.0169808,VALID,18.0839,VALID,86,VALID,0.0338542,
2007-06-20, 00:36:00,VALID,913.513,VALID,0,VALID,99.0211,VALID,0.0339617,VALID,18.0644,VALID,86,VALID,0.100446,
2007-06-20, 00:37:00,VALID,913.484,VALID,0,VALID,99.0669,VALID,0.0169808,VALID,18.058,VALID,78,VALID,0.448847,
2007-06-20, 00:38:00,VALID,913.456,VALID,0,VALID,99.0351,VALID,0.0169808,VALID,18.0779,VALID,88,VALID,0.995384,
2007-06-20, 00:39:00,VALID,913.46,VALID,0,VALID,98.9258,VALID,0.0339617,VALID,18.0807,VALID,92,VALID,0.39596,
2007-06-20, 00:40:00,VALID,913.487,VALID,0,VALID,98.7948,VALID,0,VALID,18.0969,VALID,271,VALID,0.889027,
2007-06-20, 00:41:00,VALID,913.466,VALID,0,VALID,98.7973,VALID,0.0339617,VALID,18.0744,VALID,271,VALID,0.369731,
2007-06-20, 00:42:00,VALID,913.426,VALID,0,VALID,98.9283,VALID,0.0169808,VALID,18.0644,VALID,231,VALID,0.383539,
2007-06-20, 00:43:00,VALID,913.393,VALID,0,VALID,99.0834,VALID,0,VALID,18.0677,VALID,199,VALID,0.257449,
2007-06-20, 00:44:00,VALID,913.375,VALID,0,VALID,98.7999,VALID,-0.0169808,VALID,18.0651,VALID,105,VALID,0.513368,
2007-06-20, 00:45:00,VALID,913.372,VALID,0,VALID,98.8202,VALID,-0.101885,VALID,18.0368,VALID,113,VALID,0.369606,
2007-06-20, 00:46:00,VALID,913.368,VALID,0,VALID,98.8545,VALID,-0.0679233,VALID,18.0334,VALID,114,VALID,0.142113,
2007-06-20, 00:47:00,VALID,913.355,VALID,0,VALID,98.7528,VALID,-0.0679233,VALID,18.0009,VALID,114,VALID,0.197621,
2007-06-20, 00:48:00,VALID,913.355,VALID,0,VALID,98.8049,VALID,-0.101885,VALID,17.9685,VALID,114,VALID,0.0377604,
2007-06-20, 00:49:00,VALID,913.363,VALID,0,VALID,98.9677,VALID,-0.101885,VALID,17.9491,VALID,114,VALID,0.115699,
2007-06-20, 00:50:00,VALID,913.392,VALID,0,VALID,99.0033,VALID,-0.101885,VALID,17.9101,VALID,114,VALID,0.000390625,
2007-06-20, 00:51:00,VALID,913.404,VALID,0,VALID,99.1839,VALID,-0.101885,VALID,17.8911,VALID,114,VALID,0.195131,
2007-06-20, 00:52:00,VALID,913.429,VALID,0,VALID,99.4242,VALID,-0.0849042,VALID,17.8974,VALID,117,VALID,0.316964,
2007-06-20, 00:53:00,VALID,913.419,VALID,0,VALID,99.5298,VALID,-0.0849042,VALID,17.9199,VALID,139,VALID,0.480183,
2007-06-20, 00:54:00,VALID,913.428,VALID,0,VALID,99.6404,VALID,-0.101885,VALID,17.9495,VALID,139,VALID,0.063058,
2007-06-20, 00:55:00,VALID,913.435,VALID,0,VALID,99.6913,VALID,-0.101885,VALID,17.9882,VALID,100,VALID,0.382994,
2007-06-20, 00:56:00,VALID,913.407,VALID,0,VALID,99.3403,VALID,-0.0679233,VALID,17.972,VALID,76,VALID,0.601768,
2007-06-20, 00:57:00,VALID,913.379,VALID,0,VALID,99.2894,VALID,-0.0509425,VALID,17.9423,VALID,51,VALID,0.707589,
2007-06-20, 00:58:00,VALID,913.346,VALID,0,VALID,99.5425,VALID,-0.0679233,VALID,17.9523,VALID,43,VALID,0.576982,
2007-06-20, 00:59:00,VALID,913.341,VALID,0,VALID,99.8477,VALID,-0.0679233,VALID,18.0172,VALID,35,VALID,0.457667,
2007-06-20, 01:00:00,VALID,913.338,VALID,0,VALID,99.9227,VALID,-0.101885,VALID,18.0853,VALID,34,VALID,0.317042,
2007-06-20, 01:01:00,VALID,913.34,VALID,0,VALID,99.807,VALID,-0.0509425,VALID,18.1631,VALID,34,VALID,0.0247093,
2007-06-20, 01:02:00,VALID,913.349,VALID,0,VALID,99.6328,VALID,-0.101885,VALID,18.1988,VALID,34,VALID,0.257999,
2007-06-20, 01:03:00,VALID,913.357,VALID,0,VALID,99.4522,VALID,-0.0509425,VALID,18.2185,VALID,2,VALID,0.387195,
2007-06-20, 01:04:00,VALID,913.347,VALID,0,VALID,99.4255,VALID,-0.0679233,VALID,18.2338,VALID,318,VALID,0.187922,
2007-06-20, 01:05:00,VALID,913.343,VALID,0,VALID,99.3581,VALID,-0.0679233,VALID,18.2766,VALID,318,VALID,0.0759215,
2007-06-20, 01:06:00,VALID,913.331,VALID,0,VALID,99.2487,VALID,-0.0339617,VALID,18.2963,VALID,319,VALID,0.0719866,
2007-06-20, 01:07:00,VALID,913.335,VALID,0,VALID,99.0338,VALID,-0.0339617,VALID,18.3158,VALID,319,VALID,0.1875,
2007-06-20, 01:08:00,VALID,913.327,VALID,0,VALID,99.0872,VALID,-0.0679233,VALID,18.3091,VALID,319,VALID,0.273619,
2007-06-20, 01:09:00,VALID,913.293,VALID,0,VALID,99.1699,VALID,-0.0849042,VALID,18.3542,VALID,343,VALID,0.436166,
2007-06-20, 01:10:00,VALID,913.276,VALID,0,VALID,99.03,VALID,-0.0509425,VALID,18.3969,VALID,24,VALID,0.531436,
2007-06-20, 01:11:00,VALID,913.273,VALID,0,VALID,98.7859,VALID,-0.0509425,VALID,18.3772,VALID,23,VALID,0.477431,
2007-06-20, 01:12:00,VALID,913.26,VALID,0,VALID,99.0898,VALID,-0.0509425,VALID,18.3999,VALID,356,VALID,0.715774,
2007-06-20, 01:13:00,VALID,913.237,VALID,0,VALID,99.1267,VALID,-0.0169808,VALID,18.4548,VALID,17,VALID,0.622332,
2007-06-20, 01:14:00,VALID,913.214,VALID,0,VALID,98.8342,VALID,-0.0339617,VALID,18.484,VALID,21,VALID,0.662919,
2007-06-20, 01:15:00,VALID,913.196,VALID,0,VALID,98.7554,VALID,0,VALID,18.487,VALID,23,VALID,0.370821,
2007-06-20, 01:16:00,VALID,913.166,VALID,0,VALID,98.7248,VALID,-0.0849042,VALID,18.4812,VALID,23,VALID,0.266197,
2007-06-20, 01:17:00,VALID,913.16,VALID,0,VALID,98.9385,VALID,-0.0849042,VALID,18.5004,VALID,23,VALID,0.294727,
2007-06-20, 01:18:00,VALID,913.151,VALID,0,VALID,99.002,VALID,-0.0509425,VALID,18.5625,VALID,22,VALID,0.379972,
2007-06-20, 01:19:00,VALID,913.151,VALID,0,VALID,99.1089,VALID,-0.0679233,VALID,18.6107,VALID,13,VALID,0.790365,
2007-06-20, 01:20:00,VALID,913.152,VALID,0,VALID,98.9766,VALID,-0.0849042,VALID,18.6821,VALID,18,VALID,0.924352,
2007-06-20, 01:21:00,VALID,913.145,VALID,0,VALID,98.8062,VALID,-0.0679233,VALID,18.7504,VALID,20,VALID,1.1503,
2007-06-20, 01:22:00,VALID,913.144,VALID,0,VALID,98.5506,VALID,-0.0849042,VALID,18.8023,VALID,20,VALID,0.936435,
2007-06-20, 01:23:00,VALID,913.152,VALID,0,VALID,98.5315,VALID,-0.101885,VALID,18.8508,VALID,20,VALID,0.733865,
2007-06-20, 01:24:00,VALID,913.152,VALID,0,VALID,98.2925,VALID,-0.0679233,VALID,18.8994,VALID,32,VALID,0.586124,
2007-06-20, 01:25:00,VALID,913.129,VALID,0,VALID,98.089,VALID,-0.0849042,VALID,18.9059,VALID,32,VALID,0.411044,
2007-06-20, 01:26:00,VALID,913.117,VALID,0,VALID,98.0242,VALID,-0.0509425,VALID,18.8832,VALID,32,VALID,0.527071,
2007-06-20, 01:27:00,VALID,913.092,VALID,0,VALID,97.9352,VALID,-0.0849042,VALID,18.8737,VALID,32,VALID,0.462028,
2007-06-20, 01:28:00,VALID,913.093,VALID,0,VALID,97.9809,VALID,-0.0169808,VALID,18.8573,VALID,32,VALID,0.476004,
2007-06-20, 01:29:00,VALID,913.075,VALID,0,VALID,98.0623,VALID,-0.0849042,VALID,18.8341,VALID,32,VALID,0.595385,
2007-06-20, 01:30:00,VALID,913.055,VALID,0,VALID,98.0979,VALID,-0.0679233,VALID,18.8211,VALID,32,VALID,0.659091,
2007-06-20, 01:31:00,VALID,913.044,VALID,0,VALID,98.2098,VALID,-0.0849042,VALID,18.8183,VALID,32,VALID,0.941406,
2007-06-20, 01:32:00,VALID,913.015,VALID,0,VALID,98.3421,VALID,-0.0849042,VALID,18.8216,VALID,31,VALID,0.965116,
2007-06-20, 01:33:00,VALID,913.003,VALID,0,VALID,98.3612,VALID,-0.101885,VALID,18.8345,VALID,30,VALID,0.881904,
2007-06-20, 01:34:00,VALID,913.011,VALID,0,VALID,98.3116,VALID,-0.0849042,VALID,18.8151,VALID,39,VALID,0.467035,
2007-06-20, 01:35:00,VALID,913.009,VALID,0,VALID,98.323,VALID,-0.0849042,VALID,18.7926,VALID,35,VALID,0.259943,
2007-06-20, 01:36:00,VALID,912.975,VALID,0,VALID,98.5188,VALID,-0.0509425,VALID,18.7986,VALID,35,VALID,0.37936,
2007-06-20, 01:37:00,VALID,912.972,VALID,0,VALID,98.5468,VALID,-0.0849042,VALID,18.8121,VALID,36,VALID,0.625182,
2007-06-20, 01:38:00,VALID,912.962,VALID,0,VALID,98.4425,VALID,-0.0509425,VALID,18.8151,VALID,44,VALID,1.00091,
2007-06-20, 01:39:00,VALID,912.967,VALID,0,VALID,98.3421,VALID,-0.0509425,VALID,18.7986,VALID,23,VALID,1.28675,
2007-06-20, 01:40:00,VALID,912.975,VALID,0,VALID,98.178,VALID,-0.0849042,VALID,18.75,VALID,8,VALID,0.845796,
2007-06-20, 01:41:00,VALID,912.96,VALID,0,VALID,98.398,VALID,-0.101885,VALID,18.7407,VALID,16,VALID,0.625744,
2007-06-20, 01:42:00,VALID,912.948,VALID,0,VALID,98.5633,VALID,-0.0169808,VALID,18.744,VALID,16,VALID,0.603516,
2007-06-20, 01:43:00,VALID,912.943,VALID,0,VALID,98.604,VALID,-0.0849042,VALID,18.7335,VALID,16,VALID,0.399239,
2007-06-20, 01:44:00,VALID,912.944,VALID,0,VALID,98.6002,VALID,-0.101885,VALID,18.7243,VALID,16,VALID,0.300509,
2007-06-20, 01:45:00,VALID,912.935,VALID,0,VALID,98.6778,VALID,-0.0339617,VALID,18.7015,VALID,353,VALID,0.737424,
2007-06-20, 01:46:00,VALID,912.932,VALID,0,VALID,98.8545,VALID,-0.0339617,VALID,18.7145,VALID,354,VALID,0.570131,
2007-06-20, 01:47:00,VALID,912.938,VALID,0,VALID,98.9296,VALID,-0.0339617,VALID,18.724,VALID,2,VALID,0.677326,
2007-06-20, 01:48:00,VALID,912.932,VALID,0,VALID,98.9372,VALID,-0.0169808,VALID,18.73,VALID,18,VALID,1.01108,
2007-06-20, 01:49:00,VALID,912.919,VALID,0,VALID,98.9232,VALID,-0.0509425,VALID,18.7625,VALID,17,VALID,0.823709,
2007-06-20, 01:50:00,VALID,912.899,VALID,0,VALID,98.7808,VALID,-0.0169808,VALID,18.7659,VALID,17,VALID,0.645241,
2007-06-20, 01:51:00,VALID,912.877,VALID,0,VALID,98.763,VALID,-0.0339617,VALID,18.7789,VALID,14,VALID,0.555889,
2007-06-20, 01:52:00,VALID,912.868,VALID,0,VALID,98.7414,VALID,-0.0679233,VALID,18.7792,VALID,14,VALID,0.546875,
2007-06-20, 01:53:00,VALID,912.853,VALID,0,VALID,98.7808,VALID,-0.0339617,VALID,18.7794,VALID,16,VALID,0.73137,
2007-06-20, 01:54:00,VALID,912.841,VALID,0,VALID,98.8596,VALID,-0.0169808,VALID,18.8216,VALID,26,VALID,0.73137,
2007-06-20, 01:55:00,VALID,912.814,VALID,0,VALID,98.7414,VALID,-0.0509425,VALID,18.8538,VALID,360,VALID,0.703819,
2007-06-20, 01:56:00,VALID,912.805,VALID,0,VALID,98.6536,VALID,-0.0339617,VALID,18.8767,VALID,8,VALID,0.515253,
2007-06-20, 01:57:00,VALID,912.81,VALID,0,VALID,98.5036,VALID,-0.0679233,VALID,18.8929,VALID,12,VALID,0.760174,
2007-06-20, 01:58:00,VALID,912.811,VALID,0,VALID,98.4514,VALID,-0.0509425,VALID,18.886,VALID,16,VALID,0.966602,
2007-06-20, 01:59:00,VALID,912.813,VALID,0,VALID,98.3535,VALID,-0.0169808,VALID,18.9117,VALID,25,VALID,0.902253,
2007-06-20, 02:00:00,VALID,912.806,VALID,0,VALID,98.3027,VALID,0.0679233,VALID,18.8978,VALID,345,VALID,0.762835,
2007-06-20, 02:01:00,VALID,912.79,VALID,0,VALID,98.4387,VALID,0.0169808,VALID,18.9012,VALID,347,VALID,0.468387,
2007-06-20, 02:02:00,VALID,912.775,VALID,0,VALID,98.4807,VALID,0.0339617,VALID,18.9239,VALID,347,VALID,0.625888,
2007-06-20, 02:03:00,VALID,912.758,VALID,0,VALID,98.5023,VALID,0.0169808,VALID,18.9369,VALID,327,VALID,0.722842,
2007-06-20, 02:04:00,VALID,912.762,VALID,0,VALID,98.5023,VALID,0.0509425,VALID,18.9761,VALID,338,VALID,0.571801,
2007-06-20, 02:05:00,VALID,912.756,VALID,0,VALID,98.3599,VALID,0,VALID,18.9856,VALID,352,VALID,0.908026,
2007-06-20, 02:06:00,VALID,912.739,VALID,0,VALID,98.2798,VALID,0.0169808,VALID,19.0055,VALID,337,VALID,0.714472,
2007-06-20, 02:07:00,VALID,912.731,VALID,0,VALID,98.2531,VALID,0,VALID,19.0277,VALID,5,VALID,1.07922,
2007-06-20, 02:08:00,VALID,912.723,VALID,0,VALID,98.173,VALID,0.0679233,VALID,19.0338,VALID,10,VALID,1.24505,
2007-06-20, 02:09:00,VALID,912.726,VALID,0,VALID,98.1513,VALID,0.0509425,VALID,19.0799,VALID,9,VALID,1.32107,
2007-06-20, 02:10:00,VALID,912.725,VALID,0,VALID,97.9479,VALID,0.0169808,VALID,19.0931,VALID,20,VALID,1.39009,
2007-06-20, 02:11:00,VALID,912.716,VALID,0,VALID,97.8665,VALID,0.0339617,VALID,19.0766,VALID,14,VALID,1.10465,
2007-06-20, 02:12:00,VALID,912.703,VALID,0,VALID,97.9771,VALID,0.0169808,VALID,19.0801,VALID,9,VALID,1.22191,
2007-06-20, 02:13:00,VALID,912.72,VALID,0,VALID,98.042,VALID,0.0339617,VALID,19.0894,VALID,6,VALID,1.09535,
2007-06-20, 02:14:00,VALID,912.711,VALID,0,VALID,98.0839,VALID,-0.0339617,VALID,19.1066,VALID,16,VALID,1.27763,
2007-06-20, 02:15:00,VALID,912.698,VALID,0,VALID,98.0522,VALID,-0.0679233,VALID,19.1168,VALID,18,VALID,1.17708,
2007-06-20, 02:16:00,VALID,912.697,VALID,0,VALID,98.0191,VALID,-0.101885,VALID,19.1165,VALID,19,VALID,1.21984,
2007-06-20, 02:17:00,VALID,912.699,VALID,0,VALID,97.9161,VALID,-0.0339617,VALID,19.133,VALID,23,VALID,1.26495,
2007-06-20, 02:18:00,VALID,912.693,VALID,0,VALID,97.8856,VALID,-0.0849042,VALID,19.12,VALID,16,VALID,1.13056,
2007-06-20, 02:19:00,VALID,912.677,VALID,0,VALID,97.9301,VALID,-0.0679233,VALID,19.133,VALID,27,VALID,1.3811,
2007-06-20, 02:20:00,VALID,912.658,VALID,0,VALID,97.8601,VALID,-0.0679233,VALID,19.1752,VALID,23,VALID,1.26669,
2007-06-20, 02:21:00,VALID,912.645,VALID,0,VALID,97.6961,VALID,-0.0339617,VALID,19.1687,VALID,13,VALID,0.798147,
2007-06-20, 02:22:00,VALID,912.645,VALID,0,VALID,97.7088,VALID,-0.0339617,VALID,19.1487,VALID,11,VALID,0.552401,
2007-06-20, 02:23:00,VALID,912.631,VALID,0,VALID,97.7953,VALID,-0.0679233,VALID,19.146,VALID,11,VALID,0.937145,
2007-06-20, 02:24:00,VALID,912.622,VALID,0,VALID,97.8017,VALID,-0.0509425,VALID,19.1522,VALID,8,VALID,0.877046,
2007-06-20, 02:25:00,VALID,912.625,VALID,0,VALID,97.8245,VALID,-0.0509425,VALID,19.1719,VALID,13,VALID,0.627287,
2007-06-20, 02:26:00,VALID,912.622,VALID,0,VALID,97.8131,VALID,-0.0509425,VALID,19.1717,VALID,16,VALID,0.956577,
2007-06-20, 02:27:00,VALID,912.606,VALID,0,VALID,97.7978,VALID,-0.0849042,VALID,19.1817,VALID,13,VALID,0.96548,
2007-06-20, 02:28:00,VALID,912.598,VALID,0,VALID,97.7826,VALID,-0.0849042,VALID,19.1882,VALID,5,VALID,0.988477,
2007-06-20, 02:29:00,VALID,912.572,VALID,0,VALID,97.7559,VALID,-0.0509425,VALID,19.1946,VALID,7,VALID,1.34832,
2007-06-20, 02:30:00,VALID,912.551,VALID,0,VALID,97.7699,VALID,-0.0169808,VALID,19.1979,VALID,27,VALID,1.44531,
2007-06-20, 02:31:00,VALID,912.539,VALID,0,VALID,97.7597,VALID,-0.0339617,VALID,19.1912,VALID,18,VALID,1.43043,
2007-06-20, 02:32:00,VALID,912.545,VALID,0,VALID,97.7546,VALID,0,VALID,19.1647,VALID,22,VALID,1.30487,
2007-06-20, 02:33:00,VALID,912.549,VALID,0,VALID,97.8614,VALID,-0.0339617,VALID,19.1552,VALID,25,VALID,1.2026,
2007-06-20, 02:34:00,VALID,912.533,VALID,0,VALID,97.9275,VALID,0,VALID,19.1455,VALID,13,VALID,1.16771,
2007-06-20, 02:35:00,VALID,912.513,VALID,0,VALID,98.0229,VALID,-0.0339617,VALID,19.1587,VALID,3,VALID,0.851926,
2007-06-20, 02:36:00,VALID,912.521,VALID,0,VALID,98.0064,VALID,-0.0339617,VALID,19.1615,VALID,12,VALID,1.06504,
2007-06-20, 02:37:00,VALID,912.521,VALID,0,VALID,98.1361,VALID,-0.0169808,VALID,19.2076,VALID,5,VALID,0.895198,
2007-06-20, 02:38:00,VALID,912.523,VALID,0,VALID,98.0369,VALID,-0.0169808,VALID,19.2328,VALID,16,VALID,1.1769,
2007-06-20, 02:39:00,VALID,912.5,VALID,0,VALID,97.911,VALID,-0.0339617,VALID,19.2396,VALID,19,VALID,0.988104,
2007-06-20, 02:40:00,VALID,912.494,VALID,0,VALID,97.8449,VALID,-0.0169808,VALID,19.2301,VALID,16,VALID,0.765625,
2007-06-20, 02:41:00,VALID,912.466,VALID,0,VALID,97.8996,VALID,-0.0849042,VALID,19.1976,VALID,15,VALID,0.812678,
2007-06-20, 02:42:00,VALID,912.45,VALID,0,VALID,98.0013,VALID,-0.0339617,VALID,19.1914,VALID,22,VALID,1.26385,
2007-06-20, 02:43:00,VALID,912.449,VALID,0,VALID,98.0852,VALID,-0.0339617,VALID,19.1847,VALID,27,VALID,1.30573,
2007-06-20, 02:44:00,VALID,912.451,VALID,0,VALID,98.1348,VALID,-0.0169808,VALID,19.1779,VALID,14,VALID,1.33743,
2007-06-20, 02:45:00,VALID,912.44,VALID,0,VALID,98.1145,VALID,-0.0169808,VALID,19.1912,VALID,23,VALID,1.18296,
2007-06-20, 02:46:00,VALID,912.424,VALID,0,VALID,98.103,VALID,-0.0339617,VALID,19.1719,VALID,4,VALID,0.942522,
2007-06-20, 02:47:00,VALID,912.443,VALID,0,VALID,98.0979,VALID,-0.0679233,VALID,19.1587,VALID,354,VALID,1.20751,
2007-06-20, 02:48:00,VALID,912.435,VALID,0,VALID,98.173,VALID,-0.0679233,VALID,19.1557,VALID,24,VALID,0.726563,
2007-06-20, 02:49:00,VALID,912.404,VALID,0,VALID,98.2709,VALID,-0.0339617,VALID,19.146,VALID,31,VALID,1.09059,
2007-06-20, 02:50:00,VALID,912.408,VALID,0,VALID,98.3395,VALID,-0.0169808,VALID,19.1522,VALID,14,VALID,0.413699,
2007-06-20, 02:51:00,VALID,912.416,VALID,0,VALID,98.3726,VALID,-0.0169808,VALID,19.1622,VALID,21,VALID,1.00799,
2007-06-20, 02:52:00,VALID,912.4,VALID,0,VALID,98.3344,VALID,-0.0339617,VALID,19.1879,VALID,19,VALID,0.536754,
2007-06-20, 02:53:00,VALID,912.398,VALID,0,VALID,98.3116,VALID,-0.0339617,VALID,19.2044,VALID,6,VALID,0.452195,
2007-06-20, 02:54:00,VALID,912.395,VALID,0,VALID,98.3344,VALID,-0.0339617,VALID,19.2141,VALID,345,VALID,0.533454,
2007-06-20, 02:55:00,VALID,912.39,VALID,0,VALID,98.4146,VALID,0,VALID,19.2663,VALID,348,VALID,0.648438,
2007-06-20, 02:56:00,VALID,912.369,VALID,0,VALID,98.2505,VALID,-0.0679233,VALID,19.3117,VALID,357,VALID,0.338867,
2007-06-20, 02:57:00,VALID,912.351,VALID,0,VALID,97.9314,VALID,-0.0509425,VALID,19.305,VALID,3,VALID,0.640067,
2007-06-20, 02:58:00,VALID,912.339,VALID,0,VALID,98.1755,VALID,-0.0339617,VALID,19.3369,VALID,23,VALID,1.04922,
2007-06-20, 02:59:00,VALID,912.339,VALID,0,VALID,98.1005,VALID,-0.0509425,VALID,19.3921,VALID,9,VALID,0.745898,
2007-06-20, 03:00:00,VALID,912.328,VALID,0,VALID,97.9962,VALID,0,VALID,19.4345,VALID,343,VALID,0.329942,
2007-06-20, 03:01:00,VALID,912.314,VALID,0,VALID,97.8525,VALID,-0.0169808,VALID,19.4672,VALID,351,VALID,0.336719,
2007-06-20, 03:02:00,VALID,912.31,VALID,0,VALID,97.6834,VALID,-0.0679233,VALID,19.4931,VALID,30,VALID,0.44931,
2007-06-20, 03:03:00,VALID,912.302,VALID,0,VALID,97.499,VALID,-0.0339617,VALID,19.4996,VALID,29,VALID,0.00260417,
2007-06-20, 03:04:00,VALID,912.316,VALID,0,VALID,97.4278,VALID,-0.0849042,VALID,19.4931,VALID,29,VALID,0.000952744,
2007-06-20, 03:05:00,VALID,912.327,VALID,0,VALID,97.3413,VALID,0,VALID,19.4767,VALID,29,VALID,0.0719477,
2007-06-20, 03:06:00,VALID,912.348,VALID,0,VALID,97.3909,VALID,-0.0679233,VALID,19.4574,VALID,29,VALID,0.166548,
2007-06-20, 03:07:00,VALID,912.353,VALID,0,VALID,97.3134,VALID,-0.0509425,VALID,19.428,VALID,29,VALID,0.00114329,
2007-06-20, 03:08:00,VALID,912.363,VALID,0,VALID,97.4354,VALID,-0.0679233,VALID,19.4088,VALID,29,VALID,0,
2007-06-20, 03:09:00,VALID,912.361,VALID,0,VALID,97.3312,VALID,-0.0509425,VALID,19.3926,VALID,29,VALID,0,
2007-06-20, 03:10:00,VALID,912.36,VALID,0,VALID,97.1341,VALID,-0.0679233,VALID,19.3277,VALID,29,VALID,0,
2007-06-20, 03:11:00,VALID,912.359,VALID,0,VALID,97.0158,VALID,-0.0509425,VALID,19.2398,VALID,29,VALID,0,
2007-06-20, 03:12:00,VALID,912.342,VALID,0,VALID,97.452,VALID,-0.0679233,VALID,19.1979,VALID,29,VALID,0,
2007-06-20, 03:13:00,VALID,912.343,VALID,0,VALID,97.5766,VALID,-0.0679233,VALID,19.1817,VALID,29,VALID,0,
2007-06-20, 03:14:00,VALID,912.342,VALID,0,VALID,97.8703,VALID,-0.0679233,VALID,19.1657,VALID,29,VALID,0.0515625,
2007-06-20, 03:15:00,VALID,912.326,VALID,0,VALID,98.1285,VALID,-0.0849042,VALID,19.1522,VALID,29,VALID,0,
2007-06-20, 03:16:00,VALID,912.326,VALID,0,VALID,98.1386,VALID,-0.0339617,VALID,19.1492,VALID,29,VALID,0,
2007-06-20, 03:17:00,VALID,912.34,VALID,0,VALID,98.1208,VALID,-0.0849042,VALID,19.1138,VALID,29,VALID,0,
2007-06-20, 03:18:00,VALID,912.333,VALID,0,VALID,98.2124,VALID,-0.101885,VALID,19.0876,VALID,29,VALID,0,
2007-06-20, 03:19:00,VALID,912.307,VALID,0,VALID,98.3459,VALID,-0.0849042,VALID,19.0646,VALID,29,VALID,0,
2007-06-20, 03:20:00,VALID,912.323,VALID,0,VALID,98.3484,VALID,-0.0679233,VALID,19.0454,VALID,29,VALID,0,
2007-06-20, 03:21:00,VALID,912.321,VALID,0,VALID,98.4222,VALID,-0.0849042,VALID,19.0162,VALID,29,VALID,0,
2007-06-20, 03:22:00,VALID,912.306,VALID,0,VALID,98.7477,VALID,-0.0509425,VALID,19.0162,VALID,29,VALID,0,
2007-06-20, 03:23:00,VALID,912.286,VALID,0,VALID,98.8558,VALID,-0.0509425,VALID,19.0195,VALID,29,VALID,0,
2007-06-20, 03:24:00,VALID,912.266,VALID,0,VALID,98.9245,VALID,0,VALID,19.016,VALID,29,VALID,0,
2007-06-20, 03:25:00,VALID,912.283,VALID,0,VALID,99.0656,VALID,-0.0339617,VALID,19.016,VALID,29,VALID,0,
2007-06-20, 03:26:00,VALID,912.291,VALID,0,VALID,99.3034,VALID,0,VALID,19.0217,VALID,29,VALID,0,
2007-06-20, 03:27:00,VALID,912.298,VALID,0,VALID,99.306,VALID,-0.0679233,VALID,19.0449,VALID,29,VALID,0,
2007-06-20, 03:28:00,VALID,912.294,VALID,0,VALID,99.2983,VALID,-0.0339617,VALID,19.0714,VALID,29,VALID,0,
2007-06-20, 03:29:00,VALID,912.282,VALID,0,VALID,99.1928,VALID,0,VALID,19.0644,VALID,29,VALID,0,
2007-06-20, 03:30:00,VALID,912.276,VALID,0,VALID,99.1178,VALID,-0.0169808,VALID,19.0681,VALID,29,VALID,0,
2007-06-20, 03:31:00,VALID,912.271,VALID,0,VALID,99.0872,VALID,-0.0509425,VALID,19.0549,VALID,29,VALID,0,
2007-06-20, 03:32:00,VALID,912.266,VALID,0,VALID,99.0555,VALID,-0.0679233,VALID,19.0392,VALID,29,VALID,0,
2007-06-20, 03:33:00,VALID,912.267,VALID,0,VALID,99.1228,VALID,-0.101885,VALID,19.013,VALID,29,VALID,0.125572,